| time (UTC) | temp F | wind direction | speed MPH | gust MPH | rain 1hr in | rain 24hr in | rain mn in | humidity % | barometer mb |
| 20260503224557 | 58 | 232 | 5.0 | 19.0 | 0.00 | 0.00 | 0.00 | 50 | 1009.9 |
| 20260503223056 | 59 | 286 | 6.0 | 19.0 | 0.00 | 0.00 | 0.00 | 49 | 1010.0 |
| 20260503221601 | 60 | 84 | 7.0 | 17.0 | 0.00 | 0.00 | 0.00 | 48 | 1009.9 |
| 20260503220055 | 60 | 59 | 2.0 | 12.0 | 0.00 | 0.00 | 0.00 | 47 | 1009.8 |
| 20260503214556 | 60 | 122 | 5.0 | 20.0 | 0.00 | 0.00 | 0.00 | 45 | 1009.7 |
| 20260503213057 | 61 | 179 | 6.0 | 21.0 | 0.00 | 0.00 | 0.00 | 44 | 1009.7 |
| 20260503211559 | 61 | 282 | 5.0 | 13.0 | 0.00 | 0.00 | 0.00 | 45 | 1009.5 |
| 20260503210057 | 61 | 122 | 4.0 | 14.0 | 0.00 | 0.00 | 0.00 | 44 | 1009.8 |
| 20260503204557 | 61 | 218 | 3.0 | 12.0 | 0.00 | 0.00 | 0.00 | 44 | 1009.9 |
| 20260503203058 | 61 | 294 | 3.0 | 17.0 | 0.00 | 0.00 | 0.00 | 43 | 1010.0 |
| 20260503201556 | 62 | 262 | 3.0 | 15.0 | 0.00 | 0.00 | 0.00 | 43 | 1010.1 |
| 20260503200101 | 64 | 263 | 8.0 | 19.0 | 0.00 | 0.00 | 0.00 | 40 | 1010.3 |
| 20260503194601 | 65 | 197 | 5.0 | 17.0 | 0.00 | 0.00 | 0.00 | 41 | 1010.5 |
| 20260503193059 | 63 | 220 | 4.0 | 14.0 | 0.00 | 0.00 | 0.00 | 40 | 1010.6 |
| 20260503191555 | 64 | 132 | 7.0 | 15.0 | 0.00 | 0.00 | 0.00 | 41 | 1010.8 |
| 20260503190055 | 63 | 227 | 7.0 | 21.0 | 0.00 | 0.00 | 0.00 | 40 | 1011.0 |
| 20260503183057 | 62 | 230 | 8.0 | 19.0 | 0.00 | 0.00 | 0.00 | 40 | 1011.2 |
| 20260503181555 | 63 | 269 | 7.0 | 17.0 | 0.00 | 0.00 | 0.00 | 43 | 1011.4 |
| 20260503174559 | 61 | 322 | 7.0 | 15.0 | 0.00 | 0.00 | 0.00 | 46 | 1012.0 |
| 20260503173110 | 60 | 348 | 3.0 | 13.0 | 0.00 | 0.00 | 0.00 | 43 | 1012.2 |
| 20260503171559 | 60 | 236 | 5.0 | 16.0 | 0.00 | 0.00 | 0.00 | 45 | 1012.4 |
| 20260503110110 | 36 | 179 | 1.0 | 3.0 | 0.00 | 0.00 | 0.00 | 72 | 1013.9 |
| 20260503081558 | 34 | 181 | 0.0 | 2.0 | 0.00 | 0.00 | 0.00 | 74 | 1015.0 |
| 20260503071610 | 35 | 0 | 0.0 | 0.0 | 0.00 | 0.00 | 0.00 | 67 | 1015.1 |
| 20260503060116 | 37 | 217 | 1.0 | 4.0 | 0.00 | 0.00 | 0.00 | 65 | 1015.7 |
| 20260503054600 | 37 | 0 | 0.0 | 5.0 | 0.00 | 0.00 | 0.00 | 66 | 1015.8 |
| 20260503053056 | 36 | 254 | 0.0 | 4.0 | 0.00 | 0.00 | 0.00 | 68 | 1015.8 |
| 20260503051555 | 36 | 218 | 0.0 | 5.0 | 0.00 | 0.00 | 0.00 | 69 | 1015.9 |
| 20260503050055 | 36 | 325 | 0.0 | 4.0 | 0.00 | 0.00 | 0.00 | 69 | 1015.9 |
| 20260503044554 | 36 | 0 | 0.0 | 4.0 | 0.00 | 0.00 | 0.00 | 69 | 1016.0 |
| 20260503043103 | 36 | 355 | 0.0 | 5.0 | 0.00 | 0.00 | 0.00 | 70 | 1015.9 |
| 20260503041557 | 36 | 0 | 0.0 | 1.0 | 0.00 | 0.00 | 0.00 | 72 | 1016.1 |
| 20260503040114 | 36 | 0 | 0.0 | 4.0 | 0.00 | 0.00 | 0.00 | 74 | 1016.2 |
| 20260503034559 | 36 | 0 | 0.0 | 4.0 | 0.00 | 0.00 | 0.00 | 76 | 1016.2 |
| 20260503033058 | 36 | 0 | 0.0 | 2.0 | 0.00 | 0.00 | 0.00 | 76 | 1016.3 |
| 20260503031605 | 37 | 209 | 0.0 | 2.0 | 0.00 | 0.00 | 0.00 | 76 | 1016.4 |
| 20260503030058 | 37 | 233 | 0.0 | 0.0 | 0.00 | 0.00 | 0.00 | 73 | 1016.4 |
| 20260503024557 | 37 | 0 | 0.0 | 0.0 | 0.00 | 0.00 | 0.00 | 71 | 1016.5 |
| 20260503023057 | 38 | 0 | 0.0 | 0.0 | 0.00 | 0.00 | 0.00 | 69 | 1016.6 |
| 20260503021555 | 39 | 0 | 0.0 | 0.0 | 0.00 | 0.00 | 0.00 | 68 | 1016.6 |
| 20260503020059 | 40 | 0 | 0.0 | 0.0 | 0.00 | 0.00 | 0.00 | 67 | 1016.6 |
| 20260503014611 | 40 | 0 | 0.0 | 1.0 | 0.00 | 0.00 | 0.00 | 66 | 1016.6 |
| 20260503013056 | 41 | 0 | 0.0 | 1.0 | 0.00 | 0.00 | 0.00 | 64 | 1016.5 |
| 20260503011600 | 42 | 0 | 0.0 | 1.0 | 0.00 | 0.00 | 0.00 | 60 | 1016.4 |
| 20260503010059 | 43 | 0 | 0.0 | 1.0 | 0.00 | 0.00 | 0.00 | 57 | 1016.4 |
| 20260503004559 | 44 | 0 | 0.0 | 3.0 | 0.00 | 0.00 | 0.00 | 55 | 1016.2 |
| 20260503003057 | 45 | 259 | 0.0 | 4.0 | 0.00 | 0.00 | 0.00 | 53 | 1016.1 |
| 20260503001607 | 46 | 0 | 2.0 | 5.0 | 0.00 | 0.00 | 0.00 | 52 | 1016.0 |
| 20260503000058 | 46 | 246 | 2.0 | 9.0 | 0.00 | 0.00 | 0.00 | 52 | 1016.0 |
| 20260502234558 | 46 | 269 | 2.0 | 8.0 | 0.00 | 0.00 | 0.00 | 51 | 1016.0 |
| 20260502233057 | 47 | 320 | 1.0 | 8.0 | 0.00 | 0.00 | 0.00 | 52 | 1016.1 |
| 20260502231600 | 47 | 312 | 2.0 | 8.0 | 0.00 | 0.00 | 0.00 | 51 | 1016.2 |
| 20260502230058 | 47 | 277 | 2.0 | 7.0 | 0.00 | 0.00 | 0.00 | 51 | 1016.3 |